OSLO / GARDERMOEN current weather conditions

sailwx.info

Wind at 2 knots

Air temperature 1.0° C
Visibility: greater than 3.8 NM
Dewpoint -0.0° C
Present weather: Light rain.

Last reported at 2014-Oct-23 06:20 UTC.
Time now 2014-Oct-23 08:08 UTC

Location: N 60°12' E 011°05'.
View on Google Maps.

See reports from other nearby stations

  
Tides and Currents Weather Stations Pressure Air Temp Water Temp Dewpoint Dewpoint Depression Visibility Wind Speed Wind Dir Waves Ship Positions
date/time (UTC)wind fromknots sea level pressurealtimeterstation pressurevisibilityair tempwater tempwave heightnotes
2014-Oct-23 07:20 120 4 4.3 2.0 Light rain.
2014-Oct-23 06:50 110 3 2.7 2.0 Light rain.
2014-Oct-23 06:20 3.8 1.0 Light rain.
2014-Oct-23 05:50 4.9 1.0 Light rain snow.
2014-Oct-23 05:20 070 3 4.9 1.0 Light rain snow.
2014-Oct-23 04:50 4.9 1.0 Light rain snow.
2014-Oct-23 04:20 140 3 5.4 2.0 Rain.
2014-Oct-23 03:50 130 5 4.9 2.0 Light rain.
2014-Oct-23 03:20 140 5 3.2 2.0 Light rain.
2014-Oct-23 02:50 120 4 2.7 2.0 Light drizzle rain. Mist.
2014-Oct-23 02:20 100 3 2.7 2.0 Light rain drizzle.
2014-Oct-23 01:50 3.8 2.0 Light drizzle.
2014-Oct-23 01:20 4.3 2.0 Light rain.
2014-Oct-23 00:50 100 3 4.3 1.0 Light rain.
2014-Oct-23 00:20 4.3 1.0 Light rain.
2014-Oct-22 23:50 100 3 3.8 1.0
2014-Oct-22 23:20 070 3 3.8 1.0 Light drizzle.
2014-Oct-22 22:50 050 3 4.9 1.0 Light rain.
2014-Oct-22 22:20 4.9 1.0 Light rain.
2014-Oct-22 21:50 4.9 1.0 Light rain.
2014-Oct-22 21:20 100 3 4.3 1.0 Light rain.
2014-Oct-22 20:50 110 4 4.9 2.0 Light rain snow.
2014-Oct-22 20:20 100 4 4.9 2.0 Light rain snow.
2014-Oct-22 19:50 5.4 2.0 Light rain.
2014-Oct-22 19:20 100 4 5.4 2.0 Light rain drizzle.
2014-Oct-22 18:50 100 7 5.4 2.0 Light rain drizzle.
2014-Oct-22 18:20 100 5 5.4 2.0 Light rain drizzle.
2014-Oct-22 17:50 100 5 4.9 3.0 Rain drizzle.
2014-Oct-22 17:20 100 5 4.9 3.0 Rain drizzle.
2014-Oct-22 16:50 110 5 4.9 3.0 Light rain drizzle.
2014-Oct-22 16:20 090 4 3.2 3.0 Light drizzle.
2014-Oct-22 15:50 080 5 1.6 3.0 Light drizzle. Mist.
2014-Oct-22 15:20 080 3 4.9 3.0 Light drizzle.
2014-Oct-22 14:50 090 5 5.4 3.0 Light drizzle rain.
2014-Oct-22 14:20 110 7 5.4 4.0 Light drizzle rain.
2014-Oct-22 13:50 110 7 5.4 4.0 Light drizzle rain.
2014-Oct-22 13:20 120 8 5.4 4.0 Light rain.
2014-Oct-22 12:50 110 8 4.9 4.0 Light drizzle.
2014-Oct-22 12:20 110 8 3.8 4.0 Light drizzle.
2014-Oct-22 11:50 100 6 2.7 5.0 Light drizzle. Mist.
2014-Oct-22 11:20 120 6 3.8 5.0 Light rain.
2014-Oct-22 10:50 110 9 4.9 5.0 Light rain.
2014-Oct-22 10:20 4.3 5.0 Light rain.
2014-Oct-22 09:50 110 5 4.9 5.0 Light rain.
2014-Oct-22 09:20 110 9 5.4 5.0 Light rain.
2014-Oct-22 08:50 080 3 5.4 6.0 Light rain.
2014-Oct-22 08:20 090 4 5.4 6.0 Light rain.
2014-Oct-22 07:50 100 5 5.4 6.0 Light rain.
2014-Oct-22 07:20 090 4 5.4 6.0 Light rain.
2014-Oct-22 06:50 090 4 5.4 6.0 Light rain.
2014-Oct-22 06:20 090 4 5.4 6.0 Light rain.
2014-Oct-22 05:50 5.4 6.0 Light rain.
2014-Oct-22 05:20 090 6 5.4 6.0 Light rain.
2014-Oct-22 04:50 080 6 5.4 6.0 Light rain.
2014-Oct-22 04:20 080 6 5.4 6.0 Light rain.
2014-Oct-22 03:50 070 6 5.4 6.0 Light rain.
2014-Oct-22 03:20 070 6 5.4 6.0 Light rain.
2014-Oct-22 02:50 070 8 5.4 6.0 Light rain.
2014-Oct-22 02:20 070 7 5.4 6.0 Light rain.
2014-Oct-22 01:50 070 8 5.4 6.0 Light rain.
2014-Oct-22 01:20 070 8 5.4 6.0 Light rain.
2014-Oct-22 00:50 070 8 5.4 6.0 Light rain.
2014-Oct-22 00:20 070 7 5.4 6.0 Light rain.
2014-Oct-21 23:50 060 8 5.4 6.0 Light rain.
2014-Oct-21 23:20 070 9 5.4 6.0 Light rain.
2014-Oct-21 22:50 070 8 4.9 6.0 Light rain.
2014-Oct-21 22:20 070 9 3.8 6.0 Light rain.
2014-Oct-21 21:50 070 8 4.3 6.0 Light rain.
2014-Oct-21 21:20 070 7 5.4 6.0 Light rain.
2014-Oct-21 20:50 060 8 5.4 6.0
2014-Oct-21 20:20 070 7 5.4 6.0
2014-Oct-21 19:50 060 7 5.4 6.0
2014-Oct-21 19:20 5.4 6.0
2014-Oct-21 18:50 080 7 5.4 6.0
2014-Oct-21 18:20 080 8 5.4 6.0
2014-Oct-21 17:50 080 7 5.4 6.0
2014-Oct-21 17:20 080 6 5.4 6.0
2014-Oct-21 16:50 100 8 5.4 6.0 Light rain.
2014-Oct-21 16:20 110 9 5.4 6.0
2014-Oct-21 15:50 100 8 5.4 6.0
2014-Oct-21 15:20 100 9 5.4 7.0
2014-Oct-21 14:50 110 9 gusting 20 4.9 7.0 Light rain drizzle.
2014-Oct-21 14:20 100 10 2.4 7.0 Rain drizzle. Mist.
2014-Oct-21 13:50 100 9 4.9 7.0 Light rain drizzle.
2014-Oct-21 13:20 100 9 4.9 7.0 Light rain drizzle.
2014-Oct-21 12:50 110 10 2.3 7.0 Rain drizzle. Mist.
2014-Oct-21 12:20 090 8 5.4 8.0
2014-Oct-21 11:50 100 7 5.4 8.0
2014-Oct-21 11:20 110 9 5.4 8.0
2014-Oct-21 10:50 120 8 gusting 18 5.4 7.0
2014-Oct-21 10:20 110 9 5.4 7.0
2014-Oct-21 09:50 120 10 5.4 7.0
2014-Oct-21 09:20 110 7 4.9 7.0 Light drizzle.
2014-Oct-21 08:50 120 9 2.7 7.0 Light drizzle.
2014-Oct-21 08:20 120 8 4.3 7.0